Weather in Voloma

Russia / Republic of Karelia     63°44′40″N   31°55′22″E
temp.,
°C
wind,
m/s
gust,
m/s
humid.,
%
clouds,
%
prec.,
mm/h
press.,
hPa
HPBL,
m
2 march, tue
tue200:00−2w6158612 0.0 1001648
03:00−3wnw7168216 0.0 1002839
06:00−4nw6158419 0.0 1002810
09:00−5nw5138426 0.0 1005895
12:00−4nw712720 0.0 10081252
15:00−3nw612710 0.0 10101357
18:00−5nw514780 0.0 1011679
21:00−4wnw4138517 0.0 1011568
3 march, wed
wed300:00−5wnw4139026 0.0 1010455
03:00−5wnw5138913 0.0 1010491
06:00−5wnw513890 0.0 1008507
09:00−5wnw5128740 0.0 1008478
12:00−3wnw5108432 0.0 1006574
15:00−2wsw488831 0.0 1004540
18:00−3ssw3797100 0.3 999309
21:00−3se2398100 4.8 996118
4 march, thu
thu400:00−3nnw2597100 2.5 993305
03:00−5nne61194100 6.0 994728
06:00−7n4995100 0.7 996476
09:00−8nnw4894100 1.0 998384
12:00−6nnw489098 0.2 999692
15:00−7nnw589099 0.4 1000714
18:00−8nnw3993100 0.2 1001486
21:00−10nw399499 0.3 1001325
5 march, fri
fri500:00−14wnw359775 0.0 1002104
03:00−12nw249785 0.2 1004122
06:00−13nne4992100 0.3 1006410
09:00−17n389592 0.3 1008237
12:00−13n359014 0.0 1010396
15:00−11nnw358754 0.1 1011793
18:00−13wnw239293 0.1 101235
21:00−15w239448 0.1 101228
6 march, sat
sat600:00−14w379673 0.0 1012155
03:00−15w369785 0.1 1011136
06:00−16wsw369850 0.0 1010112
09:00−13wsw379574 0.1 1008236
12:00−10wsw369397 0.0 1006338
15:00−8sw359098 0.1 1003510
18:00−11ssw2295100 0.0 100226
21:00−13sse239691 0.1 100025